M I D A S
Marine Information and Data Acquisition System
Tripno 1805 of the Zeeleeuw from 2009-11-06 07:33:50 to 2009-11-06 14:23:38
Back to CruiseResearch ActivitiesStationsMapUnderway DataData graphs

EquipmentUnitsComment
TimeDGPSUTC
LatitudeDGPSDM.mWGS84
LongitudeDGPSDM.mWGS84
TemperatureSBE03/SBE38deg celciusITS90
ConductivitySBE21S/mITS90
SalinitySBE21 Practical Salinity Units
ChlorophylAChelsea fluorimeterg/lCalibrated in Aceton
Missing or incorrect values are displayed as -999
Sea surface data collected by the RV Zeeleeuw from 2009-11-06 07:29:44 to 2009-11-06 14:23:38
Time Latitude Longitude Temperature Conductivity Salinity ChlorophylA
2009-11-06 07:30:53 51°13.681 2°55.892 17.0721 0.074008 0.434015 -1.000568
2009-11-06 07:31:53 51°13.696 2°55.806 17.0913 0.074008 0.434058 -1.035392
2009-11-06 07:32:52 51°13.703 2°55.741 17.1032 0.074008 0.434074 -1.035392
2009-11-06 07:33:50 51°13.713 2°55.738 17.0565 0.073905 0.433491 -1.035392
2009-11-06 07:34:50 51°13.705 2°55.727 17.1261 0.073905 0.433499 -1.035392
2009-11-06 07:35:49 51°13.747 2°55.694 17.08 0.073905 0.433533 -1.000568
2009-11-06 07:36:49 51°13.845 2°55.622 17.0746 0.073905 0.433567 -1.000568
2009-11-06 07:37:49 51°13.965 2°55.533 17.1143 0.073905 0.4336 -1.000568
2009-11-06 07:38:49 51°14.094 2°55.432 17.1055 0.073905 0.433625 -1.000568
2009-11-06 07:39:49 51°14.219 2°55.305 17.1403 0.073905 0.433642 -1.000568
2009-11-06 07:40:49 51°14.33 2°55.123 17.0313 0.073905 0.433659 -1.000568
2009-11-06 07:41:49 51°14.446 2°54.909 16.989 0.073905 0.433684 -1.000568
2009-11-06 07:42:49 51°14.591 2°54.728 16.9563 0.073905 0.43371 -1.000568
2009-11-06 07:43:49 51°14.754 2°54.599 16.8942 0.073905 0.433735 -1.000568
2009-11-06 07:44:49 51°14.919 2°54.477 16.854 0.073905 0.43376 -1.035392
2009-11-06 07:45:49 51°15.085 2°54.355 16.7614 0.073905 0.433785 -1.000568
2009-11-06 07:46:49 51°15.251 2°54.233 16.8165 0.073905 0.433819 -1.035392
2009-11-06 07:47:49 51°15.416 2°54.111 16.8393 0.073905 0.433844 -1.035392
2009-11-06 07:48:49 51°15.583 2°53.988 16.8604 0.073905 0.433878 -1.035392
2009-11-06 07:49:49 51°15.75 2°53.863 16.8316 0.073905 0.433912 -1.035392
2009-11-06 07:50:49 51°15.916 2°53.732 16.8242 0.073905 0.433954 -1.000568
2009-11-06 07:51:49 51°16.069 2°53.56 16.8342 0.073905 0.433979 -1.035392
2009-11-06 07:52:49 51°16.223 2°53.387 16.8345 0.073905 0.434013 -1.035392
2009-11-06 07:53:49 51°16.38 2°53.219 16.8207 0.073905 0.434055 -1.035392
2009-11-06 07:54:49 51°16.536 2°53.056 16.7817 0.073905 0.434097 -1.035392
2009-11-06 07:55:49 51°16.693 2°52.894 16.8029 0.073905 0.434123 -1.000568
2009-11-06 07:56:49 51°16.852 2°52.748 16.8284 0.073905 0.434165 -1.035392
2009-11-06 07:57:49 51°17.021 2°52.661 16.8547 0.073905 0.434207 -1.000568
2009-11-06 07:58:49 51°17.196 2°52.639 16.8842 0.073802 0.433597 -1.035392
2009-11-06 07:59:49 51°17.372 2°52.627 16.9122 0.073802 0.43364 -1.035392
2009-11-06 08:00:49 51°17.548 2°52.614 16.9554 0.073905 0.434309 -1.035392
2009-11-06 08:01:49 51°17.724 2°52.596 16.9807 0.073802 0.433715 -1.035392
2009-11-06 08:02:49 51°17.9 2°52.574 17.0047 0.073802 0.433758 -1.035392
2009-11-06 08:03:49 51°18.075 2°52.547 17.0369 0.073802 0.4338 -1.035392
2009-11-06 08:04:49 51°18.25 2°52.524 17.0569 0.073802 0.433842 -1.035392
2009-11-06 08:05:49 51°18.42 2°52.565 17.0832 0.073802 0.433876 -1.035392
2009-11-06 08:06:49 51°18.589 2°52.62 17.1188 0.073802 0.433901 -1.035392
2009-11-06 08:07:49 51°18.759 2°52.678 17.1188 0.073802 0.433952 -1.000568
2009-11-06 08:08:49 51°18.929 2°52.726 17.1806 0.073802 0.433977 -1.035392
2009-11-06 08:09:49 51°19.1 2°52.775 17.1896 0.073802 0.434019 -1.000568
2009-11-06 08:10:49 51°19.271 2°52.825 17.2164 0.073802 0.434053 -1.035392
2009-11-06 08:11:49 51°19.443 2°52.874 17.2588 0.073802 0.434079 -1.035392
2009-11-06 08:12:49 51°19.615 2°52.921 17.2974 0.073802 0.434121 -1.035392
2009-11-06 08:13:49 51°19.787 2°52.97 17.337 0.073802 0.434146 -1.035392
2009-11-06 08:14:49 51°19.958 2°53.015 17.3698 0.073802 0.43418 -1.035392
2009-11-06 08:15:49 51°20.13 2°53.055 17.3967 0.073802 0.434197 -1.035392
2009-11-06 08:16:49 51°20.302 2°53.097 17.4445 0.073802 0.434231 -1.035392
2009-11-06 08:17:49 51°20.472 2°53.14 17.4189 0.073802 0.434256 -0.373735
2009-11-06 08:18:49 51°20.643 2°53.181 17.4301 0.073802 0.434282 -0.234439
2009-11-06 08:19:49 51°20.811 2°53.228 17.458 0.073802 0.434307 -0.164791
2009-11-06 08:20:49 51°20.982 2°53.267 17.4638 0.073802 0.434332 -0.129967
2009-11-06 08:21:49 51°21.152 2°53.309 17.487 0.073802 0.434358 -0.095143
2009-11-06 08:22:49 51°21.323 2°53.349 17.493 0.073802 0.434375 -0.060319
2009-11-06 08:23:49 51°21.492 2°53.393 17.5115 0.073699 0.433781 -0.060319
2009-11-06 08:24:49 51°21.661 2°53.438 17.5181 0.073699 0.433798 -0.025495
2009-11-06 08:25:49 51°21.832 2°53.478 17.5267 0.073699 0.433823 -0.025495
2009-11-06 08:26:49 51°22.003 2°53.519 17.5229 0.073699 0.43384 0.009329
2009-11-06 08:27:49 51°22.173 2°53.559 17.5471 0.073699 0.433865 0.009329
2009-11-06 08:28:49 51°22.344 2°53.599 17.5457 0.073699 0.433891 0.009329
2009-11-06 08:29:49 51°22.515 2°53.639 17.5662 0.073699 0.433908 0.009329
2009-11-06 08:30:49 51°22.688 2°53.682 17.5802 0.073699 0.433933 0.009329
2009-11-06 08:31:49 51°22.861 2°53.726 17.5744 0.073699 0.433958 0.044153
2009-11-06 08:32:49 51°23.033 2°53.77 17.5944 0.073699 0.433975 0.044153
2009-11-06 08:33:49 51°23.203 2°53.817 17.6075 0.073699 0.434009 0.044153
2009-11-06 08:34:49 51°23.372 2°53.86 17.6343 0.073699 0.434026 0.044153
2009-11-06 08:35:49 51°23.541 2°53.903 17.6208 0.073699 0.434043 0.044153
2009-11-06 08:36:49 51°23.709 2°53.948 17.6469 0.073699 0.434052 0.044153
2009-11-06 08:37:49 51°23.878 2°53.991 17.6509 0.073699 0.434077 0.044153
2009-11-06 08:38:49 51°24.046 2°54.034 17.6819 0.073699 0.434102 0.044153
2009-11-06 08:39:49 51°24.217 2°54.067 17.6857 0.073699 0.434119 0.078977
2009-11-06 08:40:49 51°24.39 2°54.077 17.6911 0.073699 0.434145 0.078977
2009-11-06 08:41:49 51°24.562 2°54.087 17.7004 0.073699 0.43417 0.078977
2009-11-06 08:42:49 51°24.734 2°54.102 17.6988 0.073699 0.434196 0.078977
2009-11-06 08:43:49 51°24.906 2°54.114 17.7404 0.073699 0.434221 0.078977
2009-11-06 08:44:49 51°25.08 2°54.127 17.7394 0.073699 0.434229 0.078977
2009-11-06 08:45:49 51°25.253 2°54.143 17.7555 0.073699 0.434263 0.078977
2009-11-06 08:46:49 51°25.425 2°54.161 17.7544 0.073699 0.434272 0.078977
2009-11-06 08:47:49 51°25.596 2°54.177 17.7631 0.073596 0.433677 0.113802
2009-11-06 08:48:49 51°25.767 2°54.191 17.7819 0.073596 0.433686 0.113802
2009-11-06 08:49:49 51°25.938 2°54.206 17.7954 0.073596 0.433694 0.078977
2009-11-06 08:50:49 51°26.11 2°54.216 17.8085 0.073596 0.43372 0.113802
2009-11-06 08:51:49 51°26.282 2°54.231 17.832 0.073596 0.43372 0.113802
2009-11-06 08:52:49 51°26.453 2°54.249 17.8324 0.073596 0.433736 0.113802
2009-11-06 08:53:49 51°26.624 2°54.257 17.8473 0.073596 0.433745 0.113802
2009-11-06 08:54:49 51°26.795 2°54.255 17.8509 0.073596 0.433753 0.113802
2009-11-06 08:55:49 51°26.961 2°54.25 17.8647 0.073596 0.43377 0.113802
2009-11-06 08:56:49 51°27.127 2°54.246 17.8797 0.073596 0.433787 0.113802
2009-11-06 08:57:49 51°27.292 2°54.243 17.9065 0.073596 0.43383 0.148626
2009-11-06 08:58:49 51°27.461 2°54.242 17.9127 0.073596 0.43383 0.148626
2009-11-06 08:59:49 51°27.628 2°54.242 17.9295 0.073596 0.433864 0.148626
2009-11-06 09:00:49 51°27.795 2°54.244 17.9379 0.073596 0.433872 0.148626
2009-11-06 09:01:49 51°27.962 2°54.246 17.9408 0.073596 0.433906 0.148626
2009-11-06 09:02:49 51°28.127 2°54.252 17.9683 0.073596 0.433931 0.148626
2009-11-06 09:03:49 51°28.292 2°54.257 17.9715 0.073596 0.433948 0.148626
2009-11-06 09:04:49 51°28.46 2°54.265 17.9892 0.073596 0.433974 0.148626
2009-11-06 09:05:49 51°28.625 2°54.27 18.0038 0.073596 0.434016 0.148626
2009-11-06 09:06:49 51°28.792 2°54.275 18.0079 0.073596 0.43405 0.148626
2009-11-06 09:07:49 51°28.957 2°54.279 18.02 0.073596 0.434076 0.148626
2009-11-06 09:08:49 51°29.125 2°54.282 18.0398 0.073493 0.433463 0.148626
2009-11-06 09:09:49 51°29.293 2°54.285 18.0495 0.073493 0.433489 0.148626
2009-11-06 09:10:49 51°29.463 2°54.289 18.0719 0.073493 0.433531 0.148626
2009-11-06 09:11:49 51°29.632 2°54.291 18.0716 0.073493 0.43354 0.18345
2009-11-06 09:12:49 51°29.803 2°54.29 18.0935 0.073493 0.433565 0.18345
2009-11-06 09:13:49 51°29.973 2°54.292 18.1 0.073493 0.43359 0.18345
2009-11-06 09:14:49 51°30.141 2°54.297 18.1139 0.073493 0.433633 0.18345
2009-11-06 09:15:49 51°30.305 2°54.34 18.1355 0.073493 0.433658 0.18345
2009-11-06 09:16:49 51°30.469 2°54.389 18.1445 0.073493 0.433667 0.18345
2009-11-06 09:17:49 51°30.633 2°54.442 18.1374 0.073493 0.433709 0.18345
2009-11-06 09:18:49 51°30.796 2°54.498 18.1487 0.073493 0.433769 0.18345
2009-11-06 09:19:49 51°30.953 2°54.554 18.1895 0.073493 0.433769 0.18345
2009-11-06 09:20:49 51°31.11 2°54.606 18.1956 0.073493 0.433794 0.18345
2009-11-06 09:21:49 51°31.266 2°54.663 18.2021 0.073493 0.433811 0.18345
2009-11-06 09:22:49 51°31.424 2°54.716 18.2124 0.073493 0.433845 0.18345
2009-11-06 09:23:49 51°31.581 2°54.772 18.2398 0.073493 0.433887 0.18345
2009-11-06 09:24:49 51°31.737 2°54.82 18.2482 0.073493 0.433921 0.18345
2009-11-06 09:25:49 51°31.898 2°54.857 18.2763 0.073493 0.433921 0.218274
2009-11-06 09:26:49 51°32.057 2°54.881 18.2733 0.073493 0.43393 0.18345
2009-11-06 09:27:49 51°32.176 2°54.891 18.2921 0.073493 0.433955 0.218274
2009-11-06 09:28:49 51°32.248 2°54.939 18.3159 0.073493 0.433981 0.218274
2009-11-06 09:29:49 51°32.331 2°55.002 18.3195 0.07339 0.433368 0.218274
2009-11-06 09:30:49 51°32.389 2°55.087 18.3303 0.07339 0.433402 0.218274
2009-11-06 09:31:49 51°32.386 2°55.138 18.3456 0.07339 0.433419 0.218274
2009-11-06 09:32:49 51°32.373 2°55.159 18.3634 0.07339 0.433436 0.218274
2009-11-06 09:33:49 51°32.358 2°55.167 18.3738 0.07339 0.433453 0.218274
2009-11-06 09:34:49 51°32.343 2°55.17 18.3864 0.07339 0.433461 0.218274
2009-11-06 09:35:49 51°32.33 2°55.169 18.3973 0.07339 0.433478 0.218274
2009-11-06 09:36:49 51°32.319 2°55.166 18.4157 0.07339 0.433495 0.218274
2009-11-06 09:37:49 51°32.309 2°55.162 18.4238 0.07339 0.433512 0.18345
2009-11-06 09:38:49 51°32.299 2°55.155 18.4285 0.07339 0.433529 0.218274
2009-11-06 09:39:49 51°32.292 2°55.146 18.4366 0.07339 0.433555 0.218274
2009-11-06 09:40:49 51°32.283 2°55.137 18.4647 0.07339 0.433563 0.18345
2009-11-06 09:41:49 51°32.272 2°55.127 18.4573 0.07339 0.433589 0.218274
2009-11-06 09:42:49 51°32.263 2°55.118 18.4765 0.07339 0.433614 0.218274
2009-11-06 09:43:49 51°32.255 2°55.11 18.4992 0.07339 0.43364 0.218274
2009-11-06 09:44:49 51°32.249 2°55.101 18.5063 0.07339 0.433665 0.218274
2009-11-06 09:45:49 51°32.243 2°55.091 18.5196 0.07339 0.433682 0.18345
2009-11-06 09:46:49 51°32.237 2°55.08 18.5294 0.07339 0.433708 0.218274
2009-11-06 09:47:49 51°32.231 2°55.07 18.5415 0.07339 0.433733 0.218274
2009-11-06 09:48:49 51°32.223 2°55.058 18.5486 0.07339 0.433759 0.218274
2009-11-06 09:49:49 51°32.214 2°55.043 18.554 0.07339 0.433776 0.218274
2009-11-06 09:50:49 51°32.204 2°55.032 18.5774 0.07339 0.433801 0.218274
2009-11-06 09:51:49 51°32.196 2°55.024 18.5908 0.07339 0.433818 0.218274
2009-11-06 09:52:49 51°32.187 2°55.016 18.603 0.07339 0.433835 0.218274
2009-11-06 09:53:49 51°32.178 2°55.007 18.6126 0.07339 0.433852 0.218274
2009-11-06 09:54:49 51°32.171 2°54.999 18.632 0.07339 0.433861 0.218274
2009-11-06 09:55:49 51°32.164 2°54.991 18.6357 0.07339 0.433886 0.218274
2009-11-06 09:56:49 51°32.156 2°54.981 18.6535 0.07339 0.433886 0.218274
2009-11-06 09:57:49 51°32.145 2°54.968 18.6692 0.073287 0.433273 0.218274
2009-11-06 09:58:49 51°32.134 2°54.957 18.6785 0.073287 0.43329 0.218274
2009-11-06 09:59:49 51°32.123 2°54.95 18.6895 0.073287 0.433298 0.218274
2009-11-06 10:00:49 51°32.112 2°54.945 18.6932 0.073287 0.433307 0.218274
2009-11-06 10:01:49 51°32.103 2°54.939 18.705 0.073287 0.433315 0.218274
2009-11-06 10:02:49 51°32.095 2°54.932 18.7064 0.073287 0.433324 0.218274
2009-11-06 10:03:49 51°32.087 2°54.924 18.7411 0.073287 0.433341 0.218274
2009-11-06 10:04:49 51°32.077 2°54.915 18.7447 0.073287 0.433358 0.218274
2009-11-06 10:05:49 51°32.069 2°54.903 18.7482 0.073287 0.433375 0.218274
2009-11-06 10:06:49 51°32.059 2°54.891 18.7698 0.073287 0.4334 0.218274
2009-11-06 10:07:49 51°32.049 2°54.881 18.7819 0.073287 0.4334 0.218274
2009-11-06 10:08:49 51°32.041 2°54.87 18.7892 0.073287 0.433417 0.218274
2009-11-06 10:09:49 51°32.034 2°54.859 18.8029 0.073287 0.433426 0.218274
2009-11-06 10:10:49 51°32.026 2°54.843 18.8156 0.073287 0.433443 0.218274
2009-11-06 10:11:49 51°32.016 2°54.825 18.8196 0.073287 0.433451 0.218274
2009-11-06 10:12:49 51°32.007 2°54.811 18.8362 0.073287 0.433468 0.218274
2009-11-06 10:13:49 51°31.998 2°54.799 18.8419 0.073287 0.433485 0.218274
2009-11-06 10:14:49 51°31.987 2°54.789 18.8508 0.073287 0.433494 0.218274
2009-11-06 10:15:49 51°31.978 2°54.777 18.8613 0.073287 0.433511 0.218274
2009-11-06 10:16:49 51°31.968 2°54.762 18.8752 0.073287 0.433519 0.218274
2009-11-06 10:17:49 51°31.959 2°54.747 18.8941 0.073287 0.433519 0.218274
2009-11-06 10:18:49 51°31.951 2°54.733 18.9063 0.073287 0.433528 0.218274
2009-11-06 10:19:49 51°31.944 2°54.72 18.8936 0.073287 0.433536 0.218274
2009-11-06 10:20:49 51°31.936 2°54.708 18.9088 0.073287 0.433545 0.218274
2009-11-06 10:21:49 51°31.929 2°54.699 18.9307 0.073287 0.433545 0.218274
2009-11-06 10:22:49 51°31.917 2°54.692 18.9404 0.073287 0.433562 0.218274
2009-11-06 10:23:49 51°31.907 2°54.682 18.9482 0.073287 0.43357 0.253098
2009-11-06 10:24:49 51°31.896 2°54.671 18.96 0.073287 0.433587 0.253098
2009-11-06 10:25:49 51°31.885 2°54.664 18.9747 0.073287 0.433596 0.218274
2009-11-06 10:26:49 51°31.874 2°54.658 18.9825 0.073287 0.433596 0.253098
2009-11-06 10:27:49 51°31.865 2°54.651 18.9894 0.073287 0.433604 0.253098
2009-11-06 10:28:49 51°31.856 2°54.643 19.0061 0.073287 0.433613 0.253098
2009-11-06 10:29:49 51°31.848 2°54.638 19.0196 0.073287 0.43363 0.253098
2009-11-06 10:30:49 51°31.837 2°54.632 19.0168 0.073287 0.433638 0.253098
2009-11-06 10:31:49 51°31.825 2°54.623 19.0248 0.073184 0.433016 0.253098
2009-11-06 10:32:49 51°31.813 2°54.614 19.0413 0.073184 0.433024 0.218274
2009-11-06 10:33:49 51°31.8 2°54.607 19.0543 0.073184 0.433033 0.253098
2009-11-06 10:34:49 51°31.79 2°54.6 19.0703 0.073184 0.433041 0.253098
2009-11-06 10:35:49 51°31.781 2°54.593 19.0783 0.073184 0.433041 0.253098
2009-11-06 10:36:49 51°31.771 2°54.586 19.0855 0.073184 0.433058 0.253098
2009-11-06 10:37:49 51°31.761 2°54.58 19.0945 0.073184 0.433058 0.253098
2009-11-06 10:38:49 51°31.75 2°54.571 19.1023 0.073184 0.433067 0.253098
2009-11-06 10:39:49 51°31.739 2°54.559 19.1089 0.073184 0.433084 0.253098
2009-11-06 10:40:49 51°31.729 2°54.548 19.1232 0.073184 0.433092 0.253098
2009-11-06 10:41:49 51°31.722 2°54.54 19.1357 0.073184 0.433101 0.253098
2009-11-06 10:42:49 51°31.714 2°54.531 19.1392 0.073184 0.433109 0.253098
2009-11-06 10:43:49 51°31.704 2°54.524 19.1444 0.073184 0.433118 0.253098
2009-11-06 10:44:49 51°31.693 2°54.516 19.1591 0.073184 0.433109 0.253098
2009-11-06 10:45:49 51°31.682 2°54.508 19.1735 0.073184 0.433109 0.253098
2009-11-06 10:46:49 51°31.671 2°54.497 19.1833 0.073184 0.433118 0.253098
2009-11-06 10:47:49 51°31.66 2°54.487 19.1937 0.073184 0.433118 0.253098
2009-11-06 10:48:49 51°31.649 2°54.481 19.194 0.073184 0.433126 0.253098
2009-11-06 10:49:49 51°31.638 2°54.477 19.2121 0.073184 0.433135 0.253098
2009-11-06 10:50:49 51°31.627 2°54.472 19.2168 0.073184 0.433135 0.253098
2009-11-06 10:51:49 51°31.619 2°54.467 19.226 0.073184 0.433143 0.253098
2009-11-06 10:52:49 51°31.61 2°54.461 19.2298 0.073184 0.433143 0.253098
2009-11-06 10:53:49 51°31.601 2°54.455 19.247 0.073184 0.433152 0.253098
2009-11-06 10:54:49 51°31.59 2°54.447 19.2489 0.073184 0.43316 0.253098
2009-11-06 10:55:49 51°31.58 2°54.438 19.254 0.073184 0.43316 0.253098
2009-11-06 10:56:49 51°31.569 2°54.433 19.2679 0.073184 0.43316 0.253098
2009-11-06 10:57:49 51°31.551 2°54.46 19.2771 0.073184 0.433169 0.253098
2009-11-06 10:58:48 51°31.569 2°54.525 19.2784 0.073184 0.433194 0.287922
2009-11-06 10:59:49 51°31.668 2°54.641 19.2895 0.073184 0.433169 0.253098
2009-11-06 11:00:49 51°31.775 2°54.8 19.2991 0.073184 0.433177 0.253098
2009-11-06 11:01:49 51°31.899 2°54.934 19.3026 0.073184 0.433169 0.253098
2009-11-06 11:02:49 51°31.992 2°55.032 19.3168 0.073184 0.433143 0.253098
2009-11-06 11:03:49 51°32.004 2°55.098 19.3175 0.073184 0.433169 0.287922
2009-11-06 11:04:49 51°31.989 2°55.129 19.3373 0.073184 0.43316 0.253098
2009-11-06 11:05:49 51°31.971 2°55.141 19.3479 0.073184 0.433135 0.287922
2009-11-06 11:06:49 51°31.956 2°55.147 19.3529 0.073184 0.433135 0.287922
2009-11-06 11:07:49 51°31.942 2°55.149 19.3647 0.073184 0.433126 0.287922
2009-11-06 11:08:49 51°31.931 2°55.15 19.3746 0.073184 0.433126 0.253098
2009-11-06 11:09:49 51°31.92 2°55.15 19.388 0.073184 0.433126 0.287922
2009-11-06 11:10:49 51°31.911 2°55.148 19.3989 0.073184 0.433126 0.287922
2009-11-06 11:11:49 51°31.897 2°55.154 19.3911 0.073184 0.433135 0.287922
2009-11-06 11:12:49 51°31.862 2°55.171 19.4188 0.073184 0.433135 0.287922
2009-11-06 11:13:49 51°31.801 2°55.142 19.4246 0.073184 0.433152 0.287922
2009-11-06 11:14:49 51°31.778 2°55.004 19.4468 0.073184 0.433169 0.287922
2009-11-06 11:15:49 51°31.749 2°54.825 19.4431 0.073184 0.433186 0.287922
2009-11-06 11:16:48 51°31.693 2°54.569 19.4467 0.073184 0.433177 0.287922
2009-11-06 11:17:49 51°31.631 2°54.266 19.4563 0.073184 0.433186 0.287922
2009-11-06 11:18:49 51°31.569 2°53.966 19.4728 0.073184 0.433186 0.287922
2009-11-06 11:19:49 51°31.511 2°53.665 19.4796 0.073184 0.433203 0.287922
2009-11-06 11:20:49 51°31.452 2°53.365 19.4797 0.073184 0.43322 0.287922
2009-11-06 11:21:49 51°31.394 2°53.068 19.4878 0.073184 0.43322 0.287922
2009-11-06 11:22:49 51°31.349 2°52.846 19.5041 0.073184 0.433237 0.322746
2009-11-06 11:23:49 51°31.339 2°52.715 19.5156 0.073184 0.433262 0.322746
2009-11-06 11:24:49 51°31.314 2°52.628 19.524 0.073184 0.433262 0.322746
2009-11-06 11:25:49 51°31.279 2°52.567 19.5239 0.073184 0.433271 0.322746
2009-11-06 11:26:49 51°31.254 2°52.525 19.5399 0.073184 0.433296 0.322746
2009-11-06 11:27:49 51°31.25 2°52.528 19.5465 0.073184 0.433313 0.322746
2009-11-06 11:28:49 51°31.242 2°52.541 19.5544 0.073184 0.43333 0.322746
2009-11-06 11:29:49 51°31.23 2°52.548 19.564 0.073184 0.433347 0.322746
2009-11-06 11:30:49 51°31.223 2°52.546 19.5673 0.073184 0.433364 0.322746
2009-11-06 11:31:49 51°31.221 2°52.54 19.5754 0.073184 0.433381 0.322746
2009-11-06 11:32:49 51°31.221 2°52.528 19.5797 0.073184 0.433407 0.322746
2009-11-06 11:33:49 51°31.22 2°52.519 19.5847 0.073184 0.433433 0.322746
2009-11-06 11:34:49 51°31.218 2°52.514 19.5778 0.073184 0.433458 0.287922
2009-11-06 11:35:49 51°31.218 2°52.509 19.5894 0.073184 0.433492 0.287922
2009-11-06 11:36:49 51°31.217 2°52.506 19.6107 0.073184 0.433518 0.322746
2009-11-06 11:37:49 51°31.217 2°52.504 19.6099 0.073081 0.43292 0.322746
2009-11-06 11:38:49 51°31.217 2°52.503 19.6154 0.073081 0.432954 0.322746
2009-11-06 11:39:49 51°31.217 2°52.502 19.6132 0.073081 0.432988 0.287922
2009-11-06 11:40:49 51°31.218 2°52.5 19.6184 0.073081 0.433031 0.287922
2009-11-06 11:41:49 51°31.217 2°52.5 19.6281 0.073081 0.433056 0.322746
2009-11-06 11:42:49 51°31.216 2°52.502 19.6377 0.073081 0.433099 0.322746
2009-11-06 11:43:49 51°31.215 2°52.504 19.6491 0.073081 0.433141 0.322746
2009-11-06 11:44:49 51°31.216 2°52.501 19.6516 0.073081 0.433175 0.322746
2009-11-06 11:45:48 51°31.217 2°52.499 19.6564 0.073081 0.433201 0.322746
2009-11-06 11:46:49 51°31.217 2°52.499 19.665 0.073081 0.433235 0.322746
2009-11-06 11:47:49 51°31.216 2°52.501 19.6719 0.073081 0.433278 0.322746
2009-11-06 11:48:49 51°31.215 2°52.505 19.6714 0.073081 0.433312 0.322746
2009-11-06 11:49:49 51°31.214 2°52.508 19.6884 0.073081 0.433355 0.322746
2009-11-06 11:50:49 51°31.213 2°52.51 19.6906 0.073081 0.433389 0.322746
2009-11-06 11:51:49 51°31.214 2°52.51 19.6927 0.073081 0.433423 0.322746
2009-11-06 11:52:49 51°31.215 2°52.509 19.704 0.073081 0.433465 0.322746
2009-11-06 11:53:49 51°31.215 2°52.507 19.7089 0.073081 0.433508 0.322746
2009-11-06 11:54:49 51°31.216 2°52.508 19.7124 0.073081 0.433534 0.322746
2009-11-06 11:55:49 51°31.215 2°52.511 19.7209 0.073081 0.433576 0.322746
2009-11-06 11:56:48 51°31.214 2°52.516 19.7266 0.073081 0.433619 0.322746
2009-11-06 11:57:49 51°31.213 2°52.523 19.7328 0.073081 0.433653 0.322746
2009-11-06 11:58:49 51°31.213 2°52.527 19.7381 0.073081 0.433696 0.322746
2009-11-06 11:59:49 51°31.214 2°52.528 19.7419 0.072979 0.433097 0.322746
2009-11-06 12:00:49 51°31.215 2°52.528 19.744 0.072979 0.43314 0.322746
2009-11-06 12:01:49 51°31.216 2°52.53 19.751 0.072979 0.433174 0.322746
2009-11-06 12:02:49 51°31.216 2°52.531 19.764 0.072979 0.433225 0.322746
2009-11-06 12:03:48 51°31.217 2°52.53 19.7605 0.072979 0.433259 0.322746
2009-11-06 12:04:49 51°31.217 2°52.532 19.7698 0.072979 0.433311 0.322746
2009-11-06 12:05:48 51°31.218 2°52.536 19.7729 0.072979 0.433362 0.322746
2009-11-06 12:06:49 51°31.219 2°52.54 19.7794 0.072979 0.433405 0.322746
2009-11-06 12:07:49 51°31.22 2°52.544 19.7794 0.072979 0.433447 0.322746
2009-11-06 12:08:49 51°31.221 2°52.545 19.7889 0.072979 0.43349 0.322746
2009-11-06 12:09:49 51°31.222 2°52.548 19.79 0.072979 0.433533 0.322746
2009-11-06 12:10:49 51°31.223 2°52.548 19.8003 0.072979 0.433584 0.322746
2009-11-06 12:11:49 51°31.225 2°52.548 19.8032 0.072979 0.433636 0.322746
2009-11-06 12:12:49 51°31.227 2°52.551 19.8034 0.072979 0.433696 0.322746
2009-11-06 12:13:49 51°31.228 2°52.554 19.811 0.072979 0.433738 0.322746
2009-11-06 12:14:49 51°31.23 2°52.554 19.8171 0.072876 0.433147 0.322746
2009-11-06 12:15:49 51°31.233 2°52.554 19.8209 0.072876 0.433199 0.322746
2009-11-06 12:16:49 51°31.235 2°52.557 19.8301 0.072876 0.43325 0.322746
2009-11-06 12:17:49 51°31.237 2°52.56 19.8366 0.072876 0.433293 0.322746
2009-11-06 12:18:49 51°31.239 2°52.563 19.8349 0.072876 0.433344 0.322746
2009-11-06 12:19:49 51°31.243 2°52.565 19.845 0.072876 0.433387 0.322746
2009-11-06 12:20:49 51°31.245 2°52.566 19.8484 0.072876 0.433447 0.322746
2009-11-06 12:21:49 51°31.249 2°52.57 19.8543 0.072876 0.433481 0.322746
2009-11-06 12:22:49 51°31.253 2°52.576 19.8515 0.072876 0.433524 0.322746
2009-11-06 12:23:48 51°31.257 2°52.573 19.8604 0.072876 0.433584 0.35757
2009-11-06 12:24:49 51°31.259 2°52.563 19.8701 0.072876 0.433627 0.35757
2009-11-06 12:25:49 51°31.259 2°52.543 19.8671 0.072876 0.43367 0.322746
2009-11-06 12:26:49 51°31.256 2°52.53 19.8739 0.072876 0.433721 0.35757
2009-11-06 12:27:49 51°31.252 2°52.52 19.8756 0.072876 0.433773 0.35757
2009-11-06 12:28:49 51°31.245 2°52.513 19.8878 0.072773 0.433181 0.35757
2009-11-06 12:29:49 51°31.242 2°52.515 19.8953 0.072876 0.433859 0.35757
2009-11-06 12:30:49 51°31.212 2°52.516 19.8958 0.072773 0.433266 0.35757
2009-11-06 12:31:49 51°31.137 2°52.51 19.9046 0.072773 0.433292 0.322746
2009-11-06 12:32:49 51°31.014 2°52.462 19.9098 0.072773 0.433326 0.35757
2009-11-06 12:33:49 51°30.853 2°52.425 19.9099 0.072773 0.433352 0.35757
2009-11-06 12:34:49 51°30.673 2°52.39 19.9282 0.072773 0.433378 0.35757
2009-11-06 12:35:49 51°30.491 2°52.354 19.9246 0.072773 0.433412 0.35757
2009-11-06 12:36:49 51°30.312 2°52.32 19.931 0.072773 0.433429 0.35757
2009-11-06 12:37:49 51°30.134 2°52.285 19.9461 0.072773 0.433438 0.35757
2009-11-06 12:38:49 51°29.959 2°52.253 19.949 0.072773 0.433455 0.35757
2009-11-06 12:39:49 51°29.783 2°52.225 19.9515 0.072773 0.433489 0.35757
2009-11-06 12:40:49 51°29.608 2°52.207 19.9639 0.072773 0.433489 0.35757
2009-11-06 12:41:49 51°29.433 2°52.205 19.9733 0.072773 0.433507 0.392394
2009-11-06 12:42:49 51°29.259 2°52.204 19.9756 0.072773 0.433524 0.392394
2009-11-06 12:43:49 51°29.087 2°52.204 19.9861 0.072773 0.433541 0.392394
2009-11-06 12:44:49 51°28.914 2°52.202 19.9859 0.072773 0.433567 0.392394
2009-11-06 12:45:49 51°28.736 2°52.198 19.9944 0.072773 0.433592 0.392394
2009-11-06 12:46:49 51°28.559 2°52.194 19.9922 0.072773 0.43361 0.392394
2009-11-06 12:47:49 51°28.384 2°52.191 19.9977 0.072773 0.433618 0.392394
2009-11-06 12:48:49 51°28.207 2°52.184 20.006 0.072773 0.433635 0.392394
2009-11-06 12:49:49 51°28.03 2°52.179 20.0107 0.072773 0.433653 0.392394
2009-11-06 12:50:49 51°27.852 2°52.176 20.0207 0.072773 0.43367 0.427218
2009-11-06 12:51:49 51°27.676 2°52.171 20.0301 0.072773 0.433678 0.392394
2009-11-06 12:52:49 51°27.499 2°52.167 20.0378 0.072773 0.433696 0.427218
2009-11-06 12:53:49 51°27.323 2°52.166 20.051 0.072773 0.433713 0.427218
2009-11-06 12:54:49 51°27.147 2°52.164 20.0508 0.072773 0.43373 0.427218
2009-11-06 12:55:49 51°26.972 2°52.17 20.0703 0.072773 0.433756 0.427218
2009-11-06 12:56:49 51°26.797 2°52.186 20.0789 0.072773 0.433773 0.427218
2009-11-06 12:57:49 51°26.622 2°52.206 20.0942 0.072773 0.433773 0.427218
2009-11-06 12:58:49 51°26.449 2°52.227 20.1121 0.072773 0.43379 0.427218
2009-11-06 12:59:49 51°26.277 2°52.248 20.1325 0.072773 0.433833 0.427218
2009-11-06 13:00:49 51°26.107 2°52.267 20.1435 0.072773 0.433833 0.427218
2009-11-06 13:01:49 51°25.938 2°52.286 20.158 0.072773 0.43385 0.427218
2009-11-06 13:02:49 51°25.768 2°52.309 20.1731 0.072773 0.433842 0.427218
2009-11-06 13:03:49 51°25.599 2°52.33 20.1871 0.072773 0.433868 0.462042
2009-11-06 13:04:49 51°25.425 2°52.348 20.2021 0.072773 0.433893 0.427218
2009-11-06 13:05:49 51°25.251 2°52.368 20.216 0.072773 0.433902 0.462042
2009-11-06 13:06:49 51°25.077 2°52.389 20.2342 0.072773 0.433911 0.462042
2009-11-06 13:07:49 51°24.906 2°52.409 20.2481 0.072773 0.433928 0.462042
2009-11-06 13:08:49 51°24.734 2°52.429 20.2659 0.072773 0.433936 0.462042
2009-11-06 13:09:49 51°24.561 2°52.441 20.2785 0.072773 0.433954 0.462042
2009-11-06 13:10:49 51°24.391 2°52.445 20.2943 0.07267 0.433335 0.462042
2009-11-06 13:11:49 51°24.222 2°52.446 20.3096 0.07267 0.433335 0.462042
2009-11-06 13:12:49 51°24.053 2°52.447 20.3263 0.07267 0.433352 0.462042
2009-11-06 13:13:49 51°23.884 2°52.45 20.3359 0.07267 0.433369 0.462042
2009-11-06 13:14:49 51°23.716 2°52.452 20.3499 0.07267 0.433378 0.462042
2009-11-06 13:15:49 51°23.549 2°52.46 20.359 0.07267 0.433386 0.496866
2009-11-06 13:16:49 51°23.385 2°52.467 20.375 0.07267 0.433412 0.462042
2009-11-06 13:17:49 51°23.222 2°52.474 20.4054 0.07267 0.433421 0.462042
2009-11-06 13:18:49 51°23.058 2°52.482 20.4208 0.07267 0.433446 0.462042
2009-11-06 13:19:49 51°22.896 2°52.491 20.4369 0.07267 0.433446 0.496866
2009-11-06 13:20:49 51°22.733 2°52.503 20.4646 0.07267 0.433455 0.496866
2009-11-06 13:21:45 51°22.582 2°52.515 20.456 0.07267 0.433472 0.496866
2009-11-06 13:23:06 51°22.362 2°52.531 20.4712 0.07267 0.433481 0.496866
2009-11-06 13:24:07 51°22.196 2°52.537 20.5057 0.07267 0.433489 0.462042
2009-11-06 13:25:06 51°22.037 2°52.55 20.5183 0.07267 0.433498 0.496866
2009-11-06 13:26:06 51°21.875 2°52.563 20.544 0.07267 0.433515 0.496866
2009-11-06 13:27:06 51°21.713 2°52.575 20.5498 0.07267 0.433524 0.496866
2009-11-06 13:28:06 51°21.549 2°52.589 20.5838 0.072567 0.432896 0.496866
2009-11-06 13:29:06 51°21.382 2°52.602 20.5967 0.072567 0.432913 0.496866
2009-11-06 13:30:07 51°21.213 2°52.617 20.6157 0.072567 0.432922 0.496866
2009-11-06 13:31:07 51°21.046 2°52.629 20.6311 0.072567 0.43293 0.496866
2009-11-06 13:32:07 51°20.879 2°52.636 20.6458 0.072567 0.432947 0.496866
2009-11-06 13:33:07 51°20.713 2°52.643 20.6543 0.072567 0.432982 0.496866
2009-11-06 13:34:06 51°20.548 2°52.646 20.6681 0.072567 0.432965 0.496866
2009-11-06 13:35:07 51°20.38 2°52.65 20.6812 0.072567 0.43299 0.496866
2009-11-06 13:36:07 51°20.216 2°52.657 20.6981 0.072567 0.43299 0.53169
2009-11-06 13:37:06 51°20.058 2°52.648 20.7095 0.072567 0.433008 0.496866
2009-11-06 13:38:07 51°19.896 2°52.624 20.7138 0.072567 0.433025 0.53169
2009-11-06 13:39:06 51°19.741 2°52.603 20.7433 0.072567 0.433042 0.496866
2009-11-06 13:40:06 51°19.584 2°52.581 20.7549 0.072567 0.433042 0.53169
2009-11-06 13:41:06 51°19.43 2°52.552 20.7732 0.072567 0.433042 0.53169
2009-11-06 13:42:07 51°19.275 2°52.505 20.7909 0.072567 0.433068 0.53169
2009-11-06 13:43:06 51°19.127 2°52.459 20.6248 0.072567 0.433076 0.496866
2009-11-06 13:44:07 51°18.973 2°52.41 20.6555 0.072567 0.433085 0.392394
2009-11-06 13:45:06 51°18.823 2°52.375 20.6773 0.072567 0.433102 0.392394
2009-11-06 13:46:06 51°18.665 2°52.363 20.6792 0.072567 0.433102 0.392394
2009-11-06 13:47:06 51°18.506 2°52.356 20.6966 0.072567 0.433119 0.392394
2009-11-06 13:48:06 51°18.347 2°52.346 20.6867 0.072567 0.433128 0.392394
2009-11-06 13:49:07 51°18.186 2°52.331 20.701 0.072567 0.433145 0.392394
2009-11-06 13:50:07 51°18.028 2°52.314 20.6947 0.072567 0.433145 0.392394
2009-11-06 13:51:07 51°17.873 2°52.295 20.7082 0.072567 0.433162 0.392394
2009-11-06 13:52:06 51°17.719 2°52.276 20.7086 0.072567 0.433162 0.392394
2009-11-06 13:53:06 51°17.563 2°52.257 20.7088 0.072567 0.43318 0.392394
2009-11-06 13:54:06 51°17.405 2°52.237 20.7212 0.072567 0.43318 0.392394
2009-11-06 13:55:07 51°17.241 2°52.217 20.7201 0.072567 0.433197 0.427218
2009-11-06 13:56:07 51°17.078 2°52.215 20.7252 0.072567 0.433205 0.427218
2009-11-06 13:57:06 51°16.917 2°52.275 20.7305 0.072567 0.433223 0.427218
2009-11-06 13:58:06 51°16.758 2°52.391 20.7301 0.072567 0.433214 0.427218
2009-11-06 13:59:06 51°16.604 2°52.528 20.7347 0.072567 0.433223 0.427218
2009-11-06 14:00:06 51°16.454 2°52.685 20.7356 0.072567 0.433231 0.427218
2009-11-06 14:01:06 51°16.304 2°52.838 20.7439 0.072567 0.433248 0.427218
2009-11-06 14:02:06 51°16.154 2°52.989 20.742 0.072567 0.433248 0.427218
2009-11-06 14:03:06 51°16.002 2°53.134 20.7453 0.072567 0.433257 0.427218
2009-11-06 14:04:07 51°15.848 2°53.278 20.747 0.072567 0.433257 0.427218
2009-11-06 14:05:06 51°15.699 2°53.417 20.7507 0.072567 0.433274 0.427218
2009-11-06 14:06:07 51°15.546 2°53.562 20.7572 0.072567 0.433283 0.427218
2009-11-06 14:07:07 51°15.4 2°53.721 20.7592 0.072567 0.433291 0.427218
2009-11-06 14:08:06 51°15.257 2°53.879 20.771 0.072567 0.4333 0.427218
2009-11-06 14:09:07 51°15.109 2°54.042 20.7876 0.072567 0.433309 0.427218
2009-11-06 14:10:06 51°14.968 2°54.201 20.8034 0.072567 0.433317 0.427218
2009-11-06 14:11:06 51°14.832 2°54.386 20.8193 0.072567 0.433326 0.427218
2009-11-06 14:12:06 51°14.698 2°54.577 20.8358 0.072567 0.433335 0.427218
2009-11-06 14:13:06 51°14.565 2°54.77 20.8508 0.072567 0.433335 0.427218
2009-11-06 14:14:06 51°14.429 2°54.962 20.8589 0.072567 0.433352 0.427218
2009-11-06 14:15:06 51°14.304 2°55.167 20.8804 0.072567 0.433369 0.427218
2009-11-06 14:16:07 51°14.194 2°55.345 20.8871 0.072567 0.43336 0.427218
2009-11-06 14:17:06 51°14.071 2°55.461 20.6667 0.072567 0.433369 0.392394
2009-11-06 14:18:07 51°13.96 2°55.543 20.5775 0.072567 0.433378 0.392394
2009-11-06 14:19:06 51°13.848 2°55.625 20.6175 0.072567 0.433395 0.392394
2009-11-06 14:20:07 51°13.746 2°55.737 20.6429 0.072464 0.432775 0.392394
2009-11-06 14:21:06 51°13.694 2°55.845 20.6471 0.072464 0.432775 0.392394
2009-11-06 14:22:07 51°13.67 2°55.938 20.6732 0.072464 0.432783 0.392394
2009-11-06 14:23:06 51°13.662 2°55.955 20.6727 0.072464 0.432801 0.392394